Location: Fort Worth, Tx
(32.7431°N, 97.3695°W)
Time: 07:18:58
(UTC-05:00)

Explorer 11/Cluster Stage 4 - Pass Details

Date: 15 February 2026
Orbit: 463 x 1176 km, 28.8° (Epoch: 5 March)

Event Time Altitude Azimuth Distance (km) Brightness Sun altitude
Rises 21:24:00 0° 254° (WSW) 2,721 10.5 -27.7°
Reaches altitude 10° 21:28:13 10° 213° (SSW) 1,995 9.0 -28.6°
Maximum altitude 21:29:04 10° 202° (SSW) 2,002 8.8 -28.7°
Enters shadow 21:29:52 10° 193° (SSW) 2,062 8.8 -28.9°
